TimeEDT,TemperatureF,Dew PointF,Humidity,Sea Level PressureIn,VisibilityMPH,Wind Direction,Wind SpeedMPH,Gust SpeedMPH,PrecipitationIn,Events,Conditions,WindDirDegrees,DateUTC
12:53 AM,43.0,41.0,93,30.36,10.0,Calm,Calm,-,N/A,,Clear,0,2013-05-04 04:53:00
1:53 AM,41.0,39.9,96,30.34,9.0,NW,3.5,-,N/A,,Clear,310,2013-05-04 05:53:00
2:53 AM,39.9,39.0,97,30.32,10.0,NW,3.5,-,N/A,,Clear,320,2013-05-04 06:53:00
3:53 AM,39.0,37.9,96,30.31,10.0,Calm,Calm,-,N/A,,Clear,0,2013-05-04 07:53:00
4:53 AM,37.9,37.0,97,30.30,9.0,Calm,Calm,-,N/A,,Clear,0,2013-05-04 08:53:00
5:53 AM,37.9,37.0,97,30.30,10.0,Calm,Calm,-,N/A,,Clear,0,2013-05-04 09:53:00
6:53 AM,39.9,39.0,97,30.30,10.0,Calm,Calm,-,N/A,,Clear,0,2013-05-04 10:53:00
7:53 AM,48.0,43.0,83,30.31,10.0,Calm,Calm,-,N/A,,Clear,0,2013-05-04 11:53:00
8:53 AM,55.9,44.1,64,30.31,10.0,ENE,8.1,-,N/A,,Clear,60,2013-05-04 12:53:00
9:53 AM,61.0,42.1,50,30.30,10.0,East,5.8,-,N/A,,Clear,100,2013-05-04 13:53:00
10:53 AM,64.9,39.9,40,30.29,10.0,Variable,5.8,-,N/A,,Clear,0,2013-05-04 14:53:00
11:53 AM,64.9,41.0,42,30.27,10.0,SSE,4.6,-,N/A,,Clear,150,2013-05-04 15:53:00
12:53 PM,68.0,39.9,36,30.26,10.0,East,8.1,-,N/A,,Clear,80,2013-05-04 16:53:00
1:53 PM,69.1,41.0,36,30.25,10.0,Calm,Calm,-,N/A,,Clear,0,2013-05-04 17:53:00
2:53 PM,66.9,45.0,45,30.23,10.0,South,11.5,18.4,N/A,,Partly Cloudy,170,2013-05-04 18:53:00
3:53 PM,68.0,42.1,39,30.21,10.0,SSE,9.2,-,N/A,,Clear,150,2013-05-04 19:53:00
4:53 PM,66.9,43.0,42,30.21,10.0,SSE,10.4,-,N/A,,Clear,150,2013-05-04 20:53:00
5:53 PM,64.9,44.1,47,30.21,10.0,Variable,4.6,-,N/A,,Clear,0,2013-05-04 21:53:00
6:53 PM,60.1,43.0,53,30.22,10.0,ESE,5.8,-,N/A,,Clear,110,2013-05-04 22:53:00
7:53 PM,54.0,42.1,64,30.24,10.0,Calm,Calm,-,N/A,,Clear,0,2013-05-04 23:53:00
8:53 PM,50.0,42.1,74,30.26,10.0,ESE,3.5,-,N/A,,Clear,110,2013-05-05 00:53:00
9:53 PM,48.9,41.0,74,30.28,10.0,Calm,Calm,-,N/A,,Clear,0,2013-05-05 01:53:00
10:53 PM,46.0,39.9,79,30.28,10.0,Calm,Calm,-,N/A,,Clear,0,2013-05-05 02:53:00
11:53 PM,44.1,39.9,85,30.28,10.0,Calm,Calm,-,N/A,,Clear,0,2013-05-05 03:53:00